Flag for Germany Weather past 2 weeks in Bremerhaven, Bremen, Germany

Now
52 °F

Passing clouds.


Feels Like: 49 °F
Forecast: 49 / 57 °F
Wind: 9 mph from Northwest

Location: Nordholz

Current Time: Oct 23, 2014 at 3:45:58 AM

Latest Report: Oct 23, 2014 at 2:20 AM


Visibility: N/A

Pressure: 30.07 "Hg

Humidity: 72%

Dew point: 43 °F

Location of BremerhavenLocation

Historic Weather in Bremerhaven — Graph

°F

Bremerhaven temperature yesterday

Maximum temperature yesterday: 54 °F (at 11:20 AM)
Minimum temperature yesterday: 50 °F (at 12:20 AM)
Average temperature yesterday: 52 °F

Past Weeks' High & Low Weather Summary

 TemperatureHumidityPressure
High70 °F (Oct 19, 1:20 PM)100% (Oct 11, 8:48 AM)30.09 "Hg (Oct 11, 8:48 AM)
Low46 °F (Oct 11, 7:20 AM)56% (Oct 11, 4:20 PM)29.33 "Hg (Oct 21, 5:20 PM)
Average56 °F88%29.77 "Hg
* Reported Oct 8 2:20 AM — Oct 23 2:20 AM, Bremerhaven, Weather by CustomWeather, © 2014

Note: Actual official high and low records may vary slightly from our data, if they occured in-between our weather recording intervals... More about our weather records

Advertising

Bremerhaven weather history for previous 24 hours

 ConditionsComfort  
Time TempWeatherWind HumidityBarometerVisibility
2:20 AM
Oct 23
52 °FPassing clouds.9 mph72%30.07 "HgN/A
1:20 AM52 °FPassing clouds.12 mph72%30.07 "HgN/A
12:20 AM52 °FPassing clouds.10 mph77%30.07 "Hg6 mi
12:00 AM50 °FLight rain. Passing clouds.7 mph88%30.07 "Hg4 mi
11:20 PM
Oct 22
52 °FLight rain. Passing clouds.16 mph82%30.07 "Hg5 mi
10:20 PM52 °FLight rain. Partly cloudy.12 mph82%30.04 "Hg6 mi
9:20 PM52 °FPassing clouds.14 mph82%30.01 "Hg6 mi
8:20 PM54 °FPartly cloudy.15 mph72%30.01 "Hg5 mi
7:20 PM54 °FPartly cloudy.16 mph72%29.98 "Hg5 mi
6:57 PM54 °FPartly sunny.15 mph77%29.95 "Hg4 mi
6:20 PM52 °FDrizzle. Fog.16 mph82%29.95 "Hg2 mi
6:00 PM52 °FDrizzle. Fog.21 mph82%29.95 "Hg2 mi
5:20 PM52 °FDrizzle. Fog.21 mph88%29.92 "Hg2 mi
4:20 PM54 °FDrizzle. Fog.23 mph82%29.89 "Hg3 mi
3:20 PM54 °FDrizzle. Fog.21 mph82%29.86 "Hg2 mi
2:20 PM54 °FDrizzle. Partly sunny.28 mph82%29.83 "Hg4 mi
1:20 PM54 °FPartly sunny.24 mph88%29.80 "Hg5 mi
12:20 PM54 °FDrizzle. Broken clouds.28 mph88%29.77 "Hg4 mi
11:20 AM54 °FDrizzle. Fog.25 mph88%29.74 "Hg3 mi
10:20 AM52 °FLight rain. Fog.26 mph94%29.68 "Hg2 mi
9:20 AM52 °FLight rain. Fog.32 mph94%29.65 "Hg2 mi
8:20 AM52 °FRain. Fog.35 mph88%29.59 "Hg2 mi
7:20 AM52 °FRain. Fog.30 mph88%29.56 "Hg3 mi
6:20 AM50 °FRain. Passing clouds.33 mph88%29.53 "Hg4 mi
5:20 AM52 °FSprinkles. Partly cloudy.36 mph77%29.53 "HgN/A
4:20 AM52 °FPartly cloudy.35 mph77%29.53 "HgN/A
3:20 AM52 °FPartly cloudy.37 mph77%29.53 "HgN/A
Weather by CustomWeather, © 2014

See weather overviewHow to use our weather pages